Radiation Dose at Monitoring Post of Fukushima Daini Nuclear Power Station
Date,Time,MP-1(microSv/h),MP-2(microSv/h),MP-3(microSv/h),MP-4(microSv/h),MP-5(microSv/h),MP-6(microSv/h),MP-7(microSv/h),Wind Direction,Wind Velocity(m/s),Rain
2015/05/10,00:00,0.557,0.340,0.601,0.555,0.482,0.259,0.234,south-southwest,2.9,No
2015/05/10,00:10,0.561,0.339,0.597,0.555,0.483,0.258,0.235,south-southwest,1.7,No
2015/05/10,00:20,0.557,0.341,0.605,0.557,0.482,0.258,0.234,southwest,2.4,No
2015/05/10,00:30,0.560,0.340,0.598,0.553,0.483,0.259,0.234,west-southwest,2.1,No
2015/05/10,00:40,0.558,0.341,0.601,0.558,0.481,0.257,0.234,west-southwest,2.2,No
2015/05/10,00:50,0.560,0.340,0.600,0.555,0.479,0.259,0.234,west-southwest,2.5,No
2015/05/10,01:00,0.559,0.339,0.598,0.557,0.483,0.258,0.234,west-southwest,3.0,No
2015/05/10,01:10,0.559,0.340,0.602,0.556,0.479,0.258,0.234,west-southwest,3.3,No
2015/05/10,01:20,0.559,0.341,0.599,0.552,0.483,0.258,0.235,west,3.9,No
2015/05/10,01:30,0.556,0.338,0.601,0.556,0.479,0.257,0.234,west,5.2,No
2015/05/10,01:40,0.560,0.338,0.600,0.554,0.479,0.258,0.233,west,5.0,No
2015/05/10,01:50,0.556,0.339,0.599,0.555,0.481,0.258,0.234,west-northwest,4.5,No
2015/05/10,02:00,0.558,0.338,0.599,0.556,0.480,0.258,0.233,west,3.5,No
2015/05/10,02:10,0.561,0.341,0.597,0.554,0.479,0.259,0.234,west-northwest,5.0,No
2015/05/10,02:20,0.557,0.338,0.600,0.557,0.479,0.259,0.234,west-northwest,8.4,No
2015/05/10,02:30,0.559,0.338,0.596,0.556,0.480,0.259,0.233,west-northwest,8.3,No
2015/05/10,02:40,0.557,0.338,0.600,0.557,0.482,0.257,0.233,west-northwest,7.2,No
2015/05/10,02:50,0.557,0.338,0.601,0.558,0.478,0.257,0.233,west-northwest,5.4,No
2015/05/10,03:00,0.558,0.339,0.596,0.554,0.480,0.257,0.234,west-northwest,3.7,No
2015/05/10,03:10,0.555,0.338,0.601,0.559,0.480,0.259,0.232,west-northwest,5.3,No
2015/05/10,03:20,0.562,0.338,0.598,0.552,0.478,0.258,0.233,northwest,4.2,No
2015/05/10,03:30,0.555,0.341,0.601,0.556,0.481,0.258,0.232,northwest,3.3,No
2015/05/10,03:40,0.560,0.338,0.598,0.554,0.480,0.259,0.234,west-northwest,2.6,No
2015/05/10,03:50,0.555,0.339,0.598,0.555,0.481,0.258,0.233,west-northwest,1.6,No
2015/05/10,04:00,0.559,0.338,0.601,0.557,0.478,0.258,0.233,southwest,1.0,No
2015/05/10,04:10,0.558,0.338,0.597,0.553,0.481,0.258,0.233,south,2.9,No
2015/05/10,04:20,0.554,0.339,0.601,0.557,0.480,0.257,0.233,south-southeast,3.8,No
2015/05/10,04:30,0.560,0.338,0.597,0.556,0.478,0.258,0.233,south,3.3,No
2015/05/10,04:40,0.557,0.338,0.600,0.557,0.481,0.258,0.233,south,3.6,No
2015/05/10,04:50,0.559,0.340,0.599,0.556,0.479,0.257,0.234,south,3.4,No
2015/05/10,05:00,0.559,0.338,0.597,0.553,0.480,0.258,0.234,south-southwest,4.5,No
2015/05/10,05:10,0.559,0.339,0.602,0.557,0.480,0.259,0.233,southwest,3.6,No
2015/05/10,05:20,0.557,0.338,0.599,0.555,0.479,0.257,0.235,south-southwest,2.8,No
2015/05/10,05:30,0.556,0.337,0.599,0.556,0.481,0.258,0.233,south-southeast,1.6,No
2015/05/10,05:40,0.561,0.339,0.599,0.557,0.478,0.258,0.233,south-southwest,2.6,No
2015/05/10,05:50,0.554,0.336,0.597,0.553,0.482,0.259,0.234,southwest,3.6,No
2015/05/10,06:00,0.559,0.340,0.601,0.557,0.478,0.259,0.232,west-southwest,2.7,No
2015/05/10,06:10,0.554,0.338,0.597,0.552,0.483,0.257,0.234,south-southwest,1.9,No
2015/05/10,06:20,0.558,0.339,0.601,0.558,0.478,0.257,0.232,southeast,0.5,No
2015/05/10,06:30,0.555,0.335,0.595,0.553,0.483,0.257,0.233,west,0.9,No
2015/05/10,06:40,0.560,0.340,0.602,0.557,0.478,0.259,0.233,west-northwest,2.1,No
2015/05/10,06:50,0.554,0.336,0.595,0.552,0.480,0.258,0.232,west-northwest,1.6,No
2015/05/10,07:00,0.558,0.337,0.600,0.556,0.480,0.259,0.233,northwest,3.0,No
2015/05/10,07:10,0.555,0.339,0.596,0.554,0.480,0.257,0.232,west,1.1,No
2015/05/10,07:20,0.554,0.337,0.593,0.550,0.483,0.259,0.231,north,1.9,No
2015/05/10,07:30,0.560,0.336,0.599,0.555,0.477,0.259,0.232,northwest,3.6,No
2015/05/10,07:40,0.555,0.338,0.595,0.553,0.482,0.258,0.232,west-northwest,6.2,No
2015/05/10,07:50,0.561,0.337,0.593,0.549,0.476,0.257,0.232,northwest,1.9,No
2015/05/10,08:00,0.557,0.338,0.601,0.555,0.484,0.256,0.231,northwest,6.1,No
2015/05/10,08:10,0.559,0.338,0.594,0.554,0.481,0.257,0.234,west-northwest,11.5,No
2015/05/10,08:20,0.560,0.337,0.602,0.550,0.480,0.258,0.232,northwest,4.1,No
2015/05/10,08:30,0.555,0.341,0.600,0.557,0.484,0.258,0.231,northwest,4.9,No
2015/05/10,08:40,0.561,0.339,0.599,0.556,0.479,0.257,0.233,west-northwest,7.1,No
2015/05/10,08:50,0.556,0.337,0.601,0.551,0.481,0.258,0.233,west-northwest,5.6,No
2015/05/10,09:00,0.556,0.341,0.598,0.554,0.483,0.257,0.232,west-northwest,5.6,No
2015/05/10,09:10,0.561,0.339,0.604,0.556,0.478,0.257,0.233,west-northwest,6.9,No
2015/05/10,09:20,0.556,0.336,0.597,0.551,0.478,0.256,0.234,northwest,7.0,No
2015/05/10,09:30,0.552,0.336,0.599,0.551,0.484,0.259,0.233,northwest,6.9,No
2015/05/10,09:40,0.560,0.340,0.602,0.550,0.482,0.257,0.232,west,7.9,No
2015/05/10,09:50,0.558,0.340,0.595,0.550,0.477,0.258,0.231,west,7.6,No
2015/05/10,10:00,0.553,0.337,0.603,0.549,0.479,0.259,0.230,west-northwest,7.5,No
2015/05/10,10:10,0.559,0.334,0.600,0.549,0.484,0.258,0.232,west-northwest,7.7,No
2015/05/10,10:20,0.561,0.337,0.596,0.556,0.481,0.259,0.234,west-northwest,8.1,No
2015/05/10,10:30,0.558,0.340,0.596,0.561,0.478,0.258,0.234,west-northwest,8.8,No
2015/05/10,10:40,0.556,0.338,0.603,0.558,0.477,0.259,0.232,west-northwest,6.9,No
2015/05/10,10:50,0.563,0.338,0.599,0.555,0.485,0.258,0.233,west-northwest,6.9,No
2015/05/10,11:00,0.561,0.340,0.598,0.550,0.482,0.260,0.233,west-northwest,7.2,No
2015/05/10,11:10,0.555,0.339,0.592,0.550,0.478,0.258,0.233,west-northwest,6.7,No
2015/05/10,11:20,0.561,0.336,0.598,0.555,0.476,0.258,0.235,west-northwest,8.0,No
2015/05/10,11:30,0.560,0.338,0.600,0.559,0.479,0.259,0.234,west,7.5,No
2015/05/10,11:40,0.555,0.342,0.602,0.559,0.484,0.258,0.233,west,7.8,No
2015/05/10,11:50,0.557,0.340,0.598,0.555,0.484,0.259,0.232,west-northwest,7.3,No
2015/05/10,12:00,0.562,0.336,0.594,0.552,0.482,0.259,0.234,west,7.4,No
2015/05/10,12:10,0.560,0.340,0.602,0.551,0.479,0.259,0.236,west-northwest,9.7,No
2015/05/10,12:20,0.554,0.342,0.603,0.559,0.479,0.259,0.234,west-northwest,9.1,No
2015/05/10,12:30,0.564,0.337,0.600,0.560,0.485,0.259,0.233,west,9.8,No
2015/05/10,12:40,0.561,0.337,0.598,0.558,0.483,0.258,0.232,west,6.0,No
2015/05/10,12:50,0.558,0.341,0.597,0.551,0.480,0.258,0.236,west-northwest,7.8,No
2015/05/10,13:00,0.565,0.340,0.604,0.557,0.484,0.258,0.235,west,8.8,No
2015/05/10,13:10,0.559,0.340,0.602,0.563,0.486,0.258,0.235,west,7.5,No
2015/05/10,13:20,0.562,0.343,0.600,0.560,0.482,0.259,0.235,west,8.2,No
2015/05/10,13:30,0.563,0.340,0.596,0.555,0.478,0.259,0.236,west-northwest,8.1,No
2015/05/10,13:40,0.559,0.336,0.599,0.553,0.475,0.258,0.234,west-northwest,7.0,No
2015/05/10,13:50,0.558,0.337,0.605,0.552,0.482,0.259,0.232,west-northwest,7.1,No
2015/05/10,14:00,0.563,0.340,0.604,0.554,0.486,0.258,0.232,west,10.1,No
2015/05/10,14:10,0.558,0.339,0.600,0.561,0.483,0.259,0.235,west,9.2,No
2015/05/10,14:20,0.555,0.338,0.597,0.562,0.481,0.259,0.235,west,8.6,No
2015/05/10,14:30,0.563,0.340,0.595,0.556,0.479,0.260,0.235,west,8.6,No
2015/05/10,14:40,0.562,0.340,0.603,0.554,0.477,0.258,0.233,west-northwest,8.4,No
2015/05/10,14:50,0.556,0.339,0.606,0.555,0.477,0.259,0.235,west,5.9,No
2015/05/10,15:00,0.564,0.338,0.600,0.562,0.482,0.260,0.235,northwest,5.5,No
2015/05/10,15:10,0.561,0.343,0.601,0.560,0.488,0.259,0.235,west-northwest,4.8,No
2015/05/10,15:20,0.561,0.337,0.608,0.559,0.483,0.260,0.236,north-northwest,4.2,No
2015/05/10,15:30,0.565,0.342,0.604,0.564,0.490,0.260,0.235,north-northwest,5.0,No
2015/05/10,15:40,0.560,0.343,0.605,0.557,0.489,0.259,0.235,northwest,5.8,No
2015/05/10,15:50,0.567,0.340,0.605,0.563,0.482,0.259,0.236,northwest,4.2,No
2015/05/10,16:00,0.560,0.341,0.599,0.558,0.479,0.261,0.234,north-northwest,5.3,No
2015/05/10,16:10,0.561,0.340,0.605,0.557,0.478,0.259,0.236,west-northwest,4.4,No
2015/05/10,16:20,0.564,0.340,0.605,0.562,0.479,0.259,0.235,west-northwest,4.2,No
2015/05/10,16:30,0.558,0.341,0.600,0.557,0.487,0.258,0.234,northwest,5.8,No
2015/05/10,16:40,0.562,0.339,0.607,0.562,0.483,0.259,0.236,west-northwest,5.6,No
2015/05/10,16:50,0.563,0.341,0.603,0.558,0.480,0.260,0.235,northwest,7.5,No
2015/05/10,17:00,0.561,0.339,0.604,0.560,0.481,0.260,0.236,west,5.3,No
2015/05/10,17:10,0.566,0.342,0.604,0.560,0.487,0.261,0.235,west-northwest,5.3,No
2015/05/10,17:20,0.559,0.339,0.604,0.559,0.482,0.260,0.235,west-northwest,5.7,No
2015/05/10,17:30,0.564,0.342,0.605,0.561,0.487,0.261,0.235,northwest,6.7,No
2015/05/10,17:40,0.560,0.340,0.603,0.559,0.486,0.259,0.235,west-northwest,7.8,No
2015/05/10,17:50,0.566,0.341,0.605,0.557,0.485,0.261,0.235,north-northwest,4.0,No
2015/05/10,18:00,0.562,0.339,0.603,0.561,0.487,0.259,0.234,northwest,5.0,No
2015/05/10,18:10,0.566,0.340,0.607,0.561,0.487,0.261,0.236,north-northwest,6.4,No
2015/05/10,18:20,0.562,0.339,0.603,0.561,0.485,0.260,0.235,north-northwest,4.4,No
2015/05/10,18:30,0.564,0.342,0.604,0.559,0.487,0.260,0.236,north,5.7,No
2015/05/10,18:40,0.561,0.339,0.602,0.563,0.483,0.261,0.236,north,6.3,No
2015/05/10,18:50,0.565,0.340,0.604,0.558,0.487,0.261,0.235,north,6.2,No
2015/05/10,19:00,0.561,0.342,0.605,0.562,0.484,0.260,0.235,north,5.0,No
2015/05/10,19:10,0.567,0.339,0.602,0.557,0.486,0.259,0.235,northwest,4.4,No
2015/05/10,19:20,0.561,0.342,0.606,0.562,0.485,0.261,0.235,north-northwest,3.2,No
2015/05/10,19:30,0.564,0.341,0.602,0.560,0.485,0.259,0.235,north,5.4,No
2015/05/10,19:40,0.561,0.341,0.606,0.560,0.484,0.259,0.236,north-northwest,3.8,No
2015/05/10,19:50,0.563,0.340,0.602,0.561,0.483,0.260,0.235,north,4.6,No
2015/05/10,20:00,0.563,0.341,0.606,0.558,0.485,0.260,0.235,north-northwest,2.7,No
2015/05/10,20:10,0.561,0.341,0.603,0.561,0.481,0.261,0.236,north-northwest,2.5,No
2015/05/10,20:20,0.565,0.339,0.603,0.559,0.483,0.261,0.235,north,5.0,No
2015/05/10,20:30,0.561,0.340,0.605,0.560,0.483,0.260,0.235,north,5.9,No
2015/05/10,20:40,0.563,0.340,0.604,0.559,0.483,0.261,0.235,north,6.0,No
2015/05/10,20:50,0.560,0.339,0.605,0.558,0.484,0.260,0.235,north,4.1,No
2015/05/10,21:00,0.565,0.341,0.601,0.561,0.483,0.259,0.235,north-northwest,2.5,No
2015/05/10,21:10,0.563,0.340,0.604,0.557,0.481,0.261,0.237,north-northwest,3.4,No
2015/05/10,21:20,0.560,0.340,0.603,0.562,0.483,0.259,0.235,north-northwest,3.3,No
2015/05/10,21:30,0.564,0.342,0.603,0.561,0.483,0.260,0.235,northwest,1.6,No
2015/05/10,21:40,0.561,0.340,0.606,0.557,0.482,0.259,0.235,west-northwest,2.0,No
2015/05/10,21:50,0.563,0.340,0.602,0.560,0.482,0.260,0.236,northwest,3.6,No
2015/05/10,22:00,0.562,0.342,0.605,0.558,0.483,0.260,0.234,west,1.7,No
2015/05/10,22:10,0.561,0.340,0.605,0.559,0.482,0.260,0.235,west-northwest,0.8,No
2015/05/10,22:20,0.564,0.341,0.602,0.560,0.484,0.260,0.235,northwest,0.8,No
2015/05/10,22:30,0.562,0.342,0.605,0.559,0.482,0.260,0.233,north-northwest,1.6,No
2015/05/10,22:40,0.563,0.339,0.604,0.560,0.485,0.260,0.236,north-northwest,2.3,No
2015/05/10,22:50,0.563,0.339,0.606,0.561,0.482,0.260,0.236,north,2.8,No
2015/05/10,23:00,0.559,0.341,0.605,0.557,0.481,0.261,0.235,north-northwest,2.7,No
2015/05/10,23:10,0.565,0.340,0.602,0.559,0.484,0.260,0.236,north-northwest,2.4,No
2015/05/10,23:20,0.561,0.339,0.603,0.560,0.482,0.260,0.236,north,1.9,No
2015/05/10,23:30,0.561,0.340,0.606,0.557,0.481,0.261,0.236,north,3.1,No
2015/05/10,23:40,0.563,0.339,0.602,0.561,0.484,0.259,0.236,north,2.8,No
2015/05/10,23:50,0.559,0.340,0.605,0.561,0.482,0.260,0.236,north-northwest,2.4,No
